Temp
34 34 35 34 34 34 34 35 36 35 36 36 36 37 37 35 35 36 38 39 41 44
33 32 32 32 32 32 32 36 34 33 33 34 35 34 34 33 32 32 33 33 34 36
33 33 32 32 30 30 30 31 31 31 32 33 32 31 31 31 32 31 32 34 32 32
33 33 33 31 31 31 30 30 31 31 31 31 30 31 29 30 31 30 31 31 31 32
33 31 30 31 31 29 31 32 29 30 30 31 30 30 29 29 29 28 30 32 31 31
30 29 28 29 29 29 29 29 29 29 29 30 30 29 30 30 30 30 30 30 31 31
28 28 28 27 27 26 27 26 27 28 28 29 29 30 30 30 29 30 31 31 31 31
28 28 27 26 26 27 27 28 28 28 27 28 29 30 29 30 29 29 29 31 32 32
26 26 26 25 25 25 25 25 25 24 24 24 27 30 31 31 29 29 28 28 29 30
22 21 22 21 22 21 20 20 20 20 21 20 22 26 28 28 27 26 26 26 27 28
19 17 18 18 16 16 17 16 16 16 16 16 18 22 23 24 22 21 22 24 25 25
15 12 14 11 12 13 12 12 11 13 12 11 11 17 19 21 18 18 18 21 22 22
14 8 9 10 9 10 9 10 11 10 10 9 8 14 17 19 16 13 16 18 21 23
11 8 7 7 8 6 6 7 5 6 7 7 9 9 16 19 17 15 14 14 16 19
MSLP
1026.34 1026.45 1026.39 1025.95 1025.72 1025.78 1025.84 1025.61 1025.32 1024.90 1024.40 1023.67 1023.07 1022.48 1022.24 1022.18 1022.00 1021.75 1021.66 1021.59 1021.42 1021.09
1026.87 1026.84 1026.66 1026.26 1026.30 1026.32 1026.35 1025.82 1025.20 1025.27 1025.15 1024.41 1023.62 1023.22 1022.81 1022.54 1022.21 1022.13 1021.79 1021.51 1021.17 1021.05
1026.88 1026.69 1026.57 1026.41 1026.19 1026.06 1026.00 1026.00 1025.72 1025.30 1025.27 1024.91 1024.10 1023.59 1023.10 1022.78 1022.54 1022.28 1021.73 1021.37 1021.12 1020.67
1027.00 1026.98 1026.88 1026.67 1026.56 1026.52 1026.32 1026.29 1026.31 1025.94 1025.04 1024.92 1024.55 1023.82 1023.33 1023.01 1022.42 1022.18 1021.96 1021.29 1020.81 1020.26
1027.21 1027.27 1027.17 1026.93 1026.79 1026.65 1026.64 1025.98 1026.27 1025.88 1025.14 1024.81 1024.77 1024.02 1023.11 1022.89 1022.63 1022.18 1021.50 1020.90 1020.51 1019.90
1027.18 1027.15 1027.05 1026.95 1026.85 1026.71 1026.53 1026.19 1025.94 1025.58 1025.17 1024.51 1024.08 1023.63 1022.99 1022.40 1022.00 1021.72 1021.37 1020.86 1020.32 1019.47
1027.07 1027.12 1027.01 1026.82 1026.73 1026.67 1026.46 1026.16 1025.69 1025.17 1024.60 1024.29 1023.94 1023.24 1022.64 1022.27 1021.60 1021.14 1020.74 1020.02 1019.69 1018.79
1027.01 1026.99 1026.92 1026.79 1026.70 1026.47 1026.19 1025.80 1025.22 1024.76 1024.30 1023.85 1023.25 1022.67 1022.27 1021.82 1021.15 1020.53 1019.98 1019.36 1018.92 1017.87
1027.10 1027.06 1027.09 1027.06 1026.97 1026.63 1026.15 1025.69 1025.18 1024.67 1024.15 1023.32 1022.73 1022.34 1022.08 1021.61 1020.94 1020.29 1019.48 1018.58 1017.70 1016.98
1027.51 1027.63 1027.56 1027.39 1027.06 1026.64 1026.15 1025.67 1025.14 1024.62 1024.09 1023.17 1022.65 1022.28 1021.65 1021.04 1020.19 1019.27 1018.42 1017.63 1016.86 1016.13
1027.90 1027.99 1027.85 1027.59 1027.29 1026.83 1026.38 1025.86 1025.29 1024.67 1024.29 1023.54 1022.81 1022.22 1021.46 1020.71 1019.75 1018.76 1017.86 1017.23 1016.60 1015.94
1028.23 1028.25 1028.08 1027.86 1027.39 1026.97 1026.46 1025.86 1025.30 1024.75 1024.06 1023.58 1022.82 1022.32 1021.34 1020.34 1019.39 1018.32 1017.44 1016.95 1016.31 1015.73
1028.15 1028.10 1027.97 1027.73 1027.37 1026.90 1026.51 1025.71 1025.14 1024.37 1024.02 1023.36 1022.45 1021.80 1020.83 1019.80 1018.78 1017.61 1016.79 1016.15 1015.40 1014.87
1028.17 1028.05 1027.85 1027.43 1027.03 1026.56 1026.03 1025.49 1024.89 1024.12 1023.43 1022.74 1022.00 1021.02 1020.02 1018.96 1017.89 1017.01 1015.99 1015.18 1014.44 1013.95
Wind_Speed
8 6 6 8 7 6 7 7 9 9 9 10 9 9 8 4 5 5 4 8 9 9
5 5 5 6 4 4 4 6 8 9 10 10 9 9 8 5 6 5 5 6 6 7
5 6 6 6 7 7 6 7 8 8 9 10 9 8 8 7 7 6 5 5 6 6
5 6 6 6 6 6 6 6 8 9 8 9 9 8 6 7 8 9 9 7 6 7
2 3 4 5 6 6 8 7 6 8 9 9 10 9 8 10 8 9 11 12 9 8
3 3 4 5 6 6 7 7 9 9 9 11 12 12 12 11 12 11 11 11 12 12
3 3 4 4 5 5 6 7 8 8 10 11 12 12 12 12 12 13 13 13 13 13
5 5 5 6 7 7 9 10 11 12 12 12 12 10 12 13 14 14 16 16 15 14
6 8 8 8 9 11 13 13 14 14 15 16 12 22 26 22 15 16 16 17 16 15
5 5 7 9 12 13 14 14 14 15 15 17 17 27 29 29 17 17 17 18 17 16
4 5 8 10 11 12 12 13 14 14 15 16 14 28 30 30 19 17 19 19 19 18
2 4 8 9 11 11 12 13 13 14 15 15 15 26 28 25 16 16 18 17 18 18
5 4 8 10 11 11 10 14 12 14 14 16 16 24 27 23 12 15 13 15 17 23
6 7 9 10 9 11 12 13 12 14 13 15 15 17 26 26 15 12 13 13 12 11
Wind_Direction
38 37 33 33 30 26 16 359 352 352 352 355 357 359 356 345 328 310 288 278 272 271
46 44 33 33 33 20 355 354 359 351 344 345 350 353 353 344 333 326 299 279 265 261
26 22 15 14 12 6 352 347 345 344 339 334 338 342 348 339 328 322 308 292 276 267
24 12 1 5 354 344 335 334 330 327 331 325 317 321 332 323 318 321 307 295 279 271
21 2 349 342 337 337 325 325 306 312 322 318 311 312 314 308 301 299 305 305 301 281
280 308 305 308 309 310 305 302 304 305 304 308 308 308 310 306 301 294 284 283 284 287
331 312 300 299 297 285 282 286 294 293 298 296 294 295 300 296 295 293 292 288 279 277
336 330 332 340 330 322 320 315 310 307 302 297 293 295 300 300 301 299 293 290 284 281
354 352 345 339 334 324 317 315 313 309 307 304 300 305 305 301 291 286 284 284 285 286
354 350 343 331 323 318 315 313 309 307 307 303 306 310 307 306 299 295 288 285 284 282
17 336 321 316 310 308 307 306 306 305 305 300 303 309 309 305 297 292 289 287 286 284
323 295 307 301 301 302 302 301 300 298 302 301 299 303 302 303 296 287 286 286 284 283
313 296 300 296 297 295 291 293 298 295 295 294 294 297 299 299 289 285 286 284 284 282
298 294 288 286 290 294 292 292 290 291 293 289 284 285 292 294 291 287 285 281 283 284